Change the Weather History Date:

Sunday, April 7, 2013

  Actual Average Record
Temperature  
Mean Temperature 42 °F -  
Max Temperature 57 °F 52 °F 73 °F (1997)
Min Temperature 26 °F 31 °F 18 °F (2002)
Degree Days  
Heating Degree Days 24    
Moisture  
Dew Point 28 °F    
Average Humidity 58    
Maximum Humidity 80    
Minimum Humidity 32    
Precipitation  
Precipitation 0.00 in - - ()
Sea Level Pressure  
Sea Level Pressure 30.15 in    
Wind  
Wind Speed 7 mph (South)    
Max Wind Speed 24 mph    
Max Gust Speed 36 mph    
Visibility 10 miles    
Events Rain    
Averages and records for this station are not official NWS values.
T = Trace of Precipitation, MM = Missing Value Source: NWS Daily Summary

Daily Weather History Graph

Daily Weather History Graph

Search for Another Location

Airport or City:

Trip Planner

Search our weather history database for the weather conditions in past years. The results will help you decide how hot, cold, wet, or windy it might be!

Date:

Astronomy

Apr. 07, 2013 Rise Set
Actual Time 6:22 AM EDT 7:23 PM EDT
Civil Twilight 5:54 AM EDT 7:52 PM EDT
Nautical Twilight 5:20 AM EDT 8:26 PM EDT
Astronomical Twilight 4:44 AM EDT 9:02 PM EDT
Moon 4:41 AM EDT (4/7) 4:50 PM EDT (4/7)
Length of Visible Light 13h 57m
Length of Day
13h 00m
Waning Crescent, 8% of the Moon is Illuminated
Apr 7
Waning Crescent
Apr 10
New
Apr 18
First Quarter
Apr 25
Full
May 2
Last Quarter

Hourly Weather History & Observations

Time (EDT) Temp. Windchill Dew Point Humidity Pressure Visibility Wind Dir Wind Speed Gust Speed Precip Events Conditions
12:53 AM 28.9 °F - 17.1 °F 61% 30.32 in 10.0 mi Calm Calm - N/A   Clear
1:53 AM 27.0 °F - 18.0 °F 69% 30.30 in 10.0 mi Calm Calm - N/A   Clear
2:53 AM 26.1 °F - 18.0 °F 71% 30.29 in 10.0 mi Calm Calm - N/A   Clear
3:53 AM 26.1 °F - 18.0 °F 71% 30.27 in 10.0 mi Calm Calm - N/A   Clear
4:53 AM 27.0 °F - 18.0 °F 69% 30.27 in 10.0 mi Calm Calm - N/A   Clear
5:53 AM 26.1 °F - 17.1 °F 69% 30.27 in 10.0 mi Calm Calm - N/A   Clear
6:53 AM 28.9 °F - 21.0 °F 72% 30.29 in 10.0 mi Calm Calm - N/A   Clear
7:53 AM 34.0 °F 28.8 °F 25.0 °F 70% 30.30 in 10.0 mi South 5.8 mph - N/A   Scattered Clouds
8:53 AM 37.9 °F 32.7 °F 27.0 °F 65% 30.28 in 10.0 mi South 6.9 mph - N/A   Overcast
9:53 AM 42.1 °F 36.6 °F 26.1 °F 53% 30.25 in 10.0 mi South 9.2 mph - N/A   Overcast
10:53 AM 50.0 °F - 23.0 °F 35% 30.21 in 10.0 mi South 16.1 mph 29.9 mph N/A   Clear
11:53 AM 52.0 °F - 25.0 °F 35% 30.18 in 10.0 mi South 19.6 mph 29.9 mph N/A   Clear
12:53 PM 53.1 °F - 24.1 °F 32% 30.14 in 10.0 mi South 19.6 mph 32.2 mph N/A   Clear
1:53 PM 57.0 °F - 28.0 °F 33% 30.10 in 10.0 mi South 23.0 mph 35.7 mph N/A   Clear
2:53 PM 55.9 °F - 28.0 °F 34% 30.07 in 10.0 mi South 18.4 mph 34.5 mph N/A   Clear
3:53 PM 55.0 °F - 28.9 °F 37% 30.03 in 10.0 mi South 20.7 mph 35.7 mph N/A   Clear
4:53 PM 54.0 °F - 28.0 °F 37% 30.02 in 10.0 mi South 24.2 mph 34.5 mph N/A   Clear
5:53 PM 53.1 °F - 30.9 °F 43% 30.02 in 10.0 mi South 18.4 mph 31.1 mph N/A   Scattered Clouds
6:53 PM 50.0 °F - 37.0 °F 61% 30.02 in 10.0 mi South 17.3 mph 26.5 mph 0.00 in Rain Light Rain
6:56 PM 50.0 °F - 37.4 °F 62% 30.00 in 10.0 mi South 15.0 mph 26.5 mph 0.00 in Rain Light Rain
7:53 PM 48.0 °F - 37.0 °F 66% 30.02 in 10.0 mi South 12.7 mph - 0.00 in   Clear
8:53 PM 46.9 °F - 37.9 °F 71% 30.02 in 10.0 mi South 10.4 mph - N/A   Clear
9:53 PM 46.0 °F 41.9 °F 39.0 °F 76% 30.02 in 10.0 mi South 8.1 mph - N/A   Clear
10:53 PM 45.0 °F 41.8 °F 39.0 °F 80% 30.01 in 10.0 mi South 5.8 mph - N/A   Partly Cloudy
11:53 PM 46.0 °F 42.5 °F 39.9 °F 79% 30.01 in 10.0 mi South 6.9 mph - N/A   Scattered Clouds